EW9411 Weather Reports


Display with metric or nautical units.
time (UTC)temp
F
wind
direction
speed
MPH
gust
MPH
rain 1hr
in
rain 24hr
in
rain mn
in
humidity
%
barometer
mb
20260503054845 48 13 3.0 11.0 0.00 0.00 0.00 53 1009.6
20260503054647 48 17 4.0 11.0 0.00 0.00 0.00 53 1009.7
20260503054333 48 356 5.0 11.0 0.00 0.00 0.00 53 1009.6
20260503054134 48 351 4.0 11.0 0.00 0.00 0.00 53 1009.7
20260503053840 48 356 4.0 9.0 0.00 0.00 0.00 53 1009.6
20260503053644 48 351 5.0 9.0 0.00 0.00 0.00 53 1009.7
20260503053350 48 12 3.0 9.0 0.00 0.00 0.00 53 1009.7
20260503053152 48 2 4.0 9.0 0.00 0.00 0.00 52 1009.7
20260503052839 48 12 5.0 8.0 0.00 0.00 0.00 52 1009.8
20260503052641 49 4 3.0 6.0 0.00 0.00 0.00 53 1009.9
20260503052347 49 8 2.0 10.0 0.00 0.00 0.00 53 1009.9
20260503052209 49 8 4.0 10.0 0.00 0.00 0.00 52 1009.9
20260503051834 49 12 3.0 10.0 0.00 0.00 0.00 52 1010.0
20260503051635 49 46 4.0 10.0 0.00 0.00 0.00 52 1010.0
20260503051340 49 351 4.0 9.0 0.00 0.00 0.00 52 1010.0
20260503051139 49 8 4.0 9.0 0.00 0.00 0.00 51 1010.0
20260503050848 49 28 5.0 12.0 0.00 0.00 0.00 51 1010.0
20260503050706 49 8 5.0 12.0 0.00 0.00 0.00 51 1009.9
20260503050338 49 12 4.0 12.0 0.00 0.00 0.00 51 1009.9
20260503050136 49 29 5.0 12.0 0.00 0.00 0.00 50 1009.9
20260503045849 49 10 5.0 9.0 0.00 0.00 0.00 51 1009.9
20260503045646 49 2 2.0 8.0 0.00 0.00 0.00 51 1009.9
20260503045359 49 356 4.0 9.0 0.00 0.00 0.00 51 1010.0
20260503045135 49 360 4.0 9.0 0.00 0.00 0.00 50 1010.0
20260503044847 49 16 3.0 12.0 0.00 0.00 0.00 51 1010.1
20260503044644 49 356 4.0 12.0 0.00 0.00 0.00 50 1010.1
20260503044335 49 3 5.0 12.0 0.00 0.00 0.00 50 1010.1
20260503044134 49 29 4.0 10.0 0.00 0.00 0.00 50 1010.1
20260503043845 49 346 5.0 10.0 0.00 0.00 0.00 49 1010.2
20260503043643 49 351 6.0 11.0 0.00 0.00 0.00 49 1010.2
20260503043409 50 13 4.0 11.0 0.00 0.00 0.00 50 1010.2
20260503043150 50 346 4.0 11.0 0.00 0.00 0.00 50 1010.2
20260503042836 50 16 5.0 11.0 0.00 0.00 0.00 50 1010.2
20260503042641 50 5 3.0 9.0 0.00 0.00 0.00 51 1010.2
20260503042347 50 20 4.0 12.0 0.00 0.00 0.00 50 1010.1
20260503042150 50 29 5.0 12.0 0.00 0.00 0.00 50 1010.2
20260503041835 50 22 4.0 12.0 0.00 0.00 0.00 49 1010.3
20260503041636 50 23 7.0 12.0 0.00 0.00 0.00 49 1010.3
20260503041342 50 2 5.0 10.0 0.00 0.00 0.00 49 1010.2
20260503041206 50 21 6.0 15.0 0.00 0.00 0.00 49 1010.1
20260503040850 50 7 5.0 15.0 0.00 0.00 0.00 49 1010.1
20260503040633 50 356 5.0 15.0 0.00 0.00 0.00 49 1010.1
20260503040340 50 356 4.0 8.0 0.00 0.00 0.00 49 1010.1
20260503040143 50 15 4.0 9.0 0.00 0.00 0.00 50 1010.1
20260503035842 50 11 3.0 11.0 0.00 0.00 0.00 49 1010.2
20260503035640 50 2 3.0 11.0 0.00 0.00 0.00 49 1010.1
20260503035351 50 4 6.0 11.0 0.00 0.00 0.00 48 1010.1
20260503035148 50 15 4.0 11.0 0.00 0.00 0.00 48 1010.1
20260503034837 50 15 5.0 12.0 0.00 0.00 0.00 48 1010.1
20260503034635 50 346 5.0 12.0 0.00 0.00 0.00 48 1010.1
20260503034346 50 346 5.0 12.0 0.00 0.00 0.00 48 1010.0
20260503034144 51 6 3.0 14.0 0.00 0.00 0.00 48 1010.0
20260503033835 51 351 4.0 14.0 0.00 0.00 0.00 48 1010.1
20260503033632 51 8 5.0 14.0 0.00 0.00 0.00 47 1010.1
20260503033344 51 335 7.0 14.0 0.00 0.00 0.00 48 1010.0
20260503033141 51 19 4.0 10.0 0.00 0.00 0.00 48 1010.0
20260503032852 51 24 4.0 10.0 0.00 0.00 0.00 48 1010.0
20260503032651 51 346 5.0 10.0 0.00 0.00 0.00 47 1009.9
20260503032341 51 3 4.0 11.0 0.00 0.00 0.00 47 1010.0
20260503032140 51 20 4.0 11.0 0.00 0.00 0.00 47 1010.0
20260503031851 51 7 5.0 11.0 0.00 0.00 0.00 47 1010.0
20260503031649 51 335 2.0 10.0 0.00 0.00 0.00 48 1010.0
20260503031338 51 1 1.0 11.0 0.00 0.00 0.00 48 1010.0
20260503031156 51 356 4.0 11.0 0.00 0.00 0.00 47 1010.1
20260503030847 51 8 4.0 11.0 0.00 0.00 0.00 47 1010.1
20260503030644 51 12 6.0 11.0 0.00 0.00 0.00 47 1010.1
20260503030334 51 360 3.0 10.0 0.00 0.00 0.00 47 1010.1
20260503030133 51 15 3.0 10.0 0.00 0.00 0.00 48 1010.1
20260503025840 51 31 4.0 10.0 0.00 0.00 0.00 47 1010.1
20260503025643 51 6 2.0 6.0 0.00 0.00 0.00 47 1010.2
20260503025350 51 8 3.0 6.0 0.00 0.00 0.00 48 1010.1
20260503025152 51 356 4.0 6.0 0.00 0.00 0.00 47 1010.2
20260503024840 51 5 3.0 6.0 0.00 0.00 0.00 48 1010.0
20260503024643 51 7 4.0 6.0 0.00 0.00 0.00 47 1010.0
20260503024349 51 4 2.0 4.0 0.00 0.00 0.00 48 1010.0
20260503024151 51 4 2.0 4.0 0.00 0.00 0.00 47 1010.0
20260503023838 52 3 3.0 5.0 0.00 0.00 0.00 47 1010.0
20260503023641 52 360 3.0 5.0 0.00 0.00 0.00 47 1010.0
20260503023347 52 360 2.0 5.0 0.00 0.00 0.00 47 1010.0
20260503023149 52 360 3.0 5.0 0.00 0.00 0.00 47 1010.0
20260503022836 52 6 2.0 6.0 0.00 0.00 0.00 47 1010.0
20260503022636 52 6 3.0 6.0 0.00 0.00 0.00 47 1010.0
20260503022404 52 4 4.0 6.0 0.00 0.00 0.00 46 1010.0
20260503022202 52 6 2.0 8.0 0.00 0.00 0.00 46 1010.0
20260503021833 52 2 3.0 8.0 0.00 0.00 0.00 46 1010.0
20260503021651 52 356 1.0 8.0 0.00 0.00 0.00 46 1010.1
20260503021338 52 360 3.0 8.0 0.00 0.00 0.00 45 1010.1
20260503021136 52 341 2.0 8.0 0.00 0.00 0.00 46 1010.1
20260503020848 52 356 4.0 8.0 0.00 0.00 0.00 46 1010.1
20260503020706 52 6 5.0 8.0 0.00 0.00 0.00 46 1010.1
20260503020335 52 10 4.0 8.0 0.00 0.00 0.00 46 1010.2
20260503020134 52 4 3.0 5.0 0.00 0.00 0.00 46 1010.2
20260503015844 52 335 1.0 5.0 0.00 0.00 0.00 47 1010.3
20260503015703 52 335 2.0 5.0 0.00 0.00 0.00 47 1010.3
20260503015333 52 356 1.0 5.0 0.00 0.00 0.00 48 1010.3
20260503015150 52 356 0.0 5.0 0.00 0.00 0.00 49 1010.4
20260503014842 52 356 1.0 5.0 0.00 0.00 0.00 47 1010.3
20260503014641 52 356 0.0 2.0 0.00 0.00 0.00 47 1010.3
20260503014348 52 356 1.0 4.0 0.00 0.00 0.00 46 1010.2
20260503014149 52 356 1.0 4.0 0.00 0.00 0.00 46 1010.2
20260503013836 53 356 1.0 4.0 0.00 0.00 0.00 46 1010.2
20260503013638 53 356 2.0 5.0 0.00 0.00 0.00 45 1010.3
20260503013346 53 356 1.0 5.0 0.00 0.00 0.00 46 1010.3
20260503013208 53 356 2.0 5.0 0.00 0.00 0.00 46 1010.2
20260503012835 53 351 2.0 5.0 0.00 0.00 0.00 46 1010.2
20260503012638 53 351 2.0 5.0 0.00 0.00 0.00 45 1010.2
20260503012345 53 351 1.0 5.0 0.00 0.00 0.00 46 1010.2
20260503012147 53 351 1.0 5.0 0.00 0.00 0.00 46 1010.2
20260503011834 53 351 1.0 5.0 0.00 0.00 0.00 45 1010.2
20260503011636 53 351 1.0 4.0 0.00 0.00 0.00 46 1010.2
20260503011340 53 351 1.0 3.0 0.00 0.00 0.00 45 1010.2
20260503011140 53 351 0.0 3.0 0.00 0.00 0.00 45 1010.2
20260503010847 53 351 1.0 3.0 0.00 0.00 0.00 45 1010.2
20260503010644 53 351 2.0 3.0 0.00 0.00 0.00 45 1010.1
20260503010335 53 351 1.0 3.0 0.00 0.00 0.00 45 1010.0
20260503010133 53 351 1.0 4.0 0.00 0.00 0.00 45 1010.0
20260503005844 53 351 1.0 4.0 0.00 0.00 0.00 45 1010.0
20260503005642 53 351 2.0 5.0 0.00 0.00 0.00 44 1009.9
20260503005334 53 346 2.0 5.0 0.00 0.00 0.00 44 1009.8
20260503005150 53 346 2.0 5.0 0.00 0.00 0.00 44 1009.8
20260503004840 53 346 2.0 5.0 0.00 0.00 0.00 44 1009.8
20260503004639 53 346 2.0 6.0 0.00 0.00 0.00 44 1009.7
20260503004348 53 342 3.0 6.0 0.00 0.00 0.00 44 1009.6
20260503004146 53 1 3.0 6.0 0.00 0.00 0.00 44 1009.6
20260503003836 53 5 2.0 5.0 0.00 0.00 0.00 44 1009.6
20260503003633 53 356 2.0 5.0 0.00 0.00 0.00 44 1009.7
20260503003344 53 15 2.0 5.0 0.00 0.00 0.00 45 1009.6
20260503003142 53 15 2.0 5.0 0.00 0.00 0.00 44 1009.7
20260503002833 54 6 2.0 4.0 0.00 0.00 0.00 44 1009.7
20260503002651 54 6 2.0 4.0 0.00 0.00 0.00 44 1009.7
20260503002403 54 6 1.0 5.0 0.00 0.00 0.00 44 1009.7
20260503002140 54 6 1.0 5.0 0.00 0.00 0.00 44 1009.7
20260503001907 54 6 1.0 6.0 0.00 0.00 0.00 44 1009.6
20260503001649 54 4 3.0 6.0 0.00 0.00 0.00 44 1009.6
20260503001333 54 7 2.0 9.0 0.00 0.00 0.00 44 1009.6
20260503001136 54 7 3.0 9.0 0.00 0.00 0.00 44 1009.5
20260503000842 54 356 3.0 9.0 0.00 0.00 0.00 43 1009.5
20260503000645 54 4 3.0 9.0 0.00 0.00 0.00 43 1009.5
20260503000415 54 20 3.0 6.0 0.00 0.00 0.00 44 1009.5
20260503000134 54 356 2.0 4.0 0.00 0.00 0.00 43 1009.6
20260502235901 55 356 2.0 4.0 0.00 0.00 0.00 44 1009.5
20260502235641 55 356 1.0 4.0 0.00 0.00 0.00 43 1009.5
20260502235347 55 356 2.0 5.0 0.00 0.00 0.00 43 1009.5
20260502235145 55 356 1.0 5.0 0.00 0.00 0.00 43 1009.5
20260502234837 55 356 2.0 6.0 0.00 0.00 0.00 43 1009.5
20260502234654 55 356 3.0 6.0 0.00 0.00 0.00 43 1009.5
20260502234405 55 356 2.0 6.0 0.00 0.00 0.00 42 1009.5
20260502234142 55 351 2.0 8.0 0.00 0.00 0.00 43 1009.5
20260502233833 55 356 3.0 9.0 0.00 0.00 0.00 42 1009.5
20260502233650 55 8 2.0 9.0 0.00 0.00 0.00 43 1009.5
20260502233341 55 1 2.0 9.0 0.00 0.00 0.00 43 1009.5
20260502233140 55 356 4.0 9.0 0.00 0.00 0.00 42 1009.4
20260502232850 55 4 2.0 5.0 0.00 0.00 0.00 42 1009.3
20260502232648 55 10 3.0 5.0 0.00 0.00 0.00 42 1009.2
20260502232338 55 356 3.0 5.0 0.00 0.00 0.00 43 1009.2
20260502232135 55 346 2.0 4.0 0.00 0.00 0.00 43 1009.2
20260502231847 56 346 1.0 4.0 0.00 0.00 0.00 43 1009.3
20260502231646 56 346 1.0 10.0 0.00 0.00 0.00 42 1009.3
20260502231335 56 346 1.0 10.0 0.00 0.00 0.00 43 1009.2
20260502231152 56 346 2.0 10.0 0.00 0.00 0.00 42 1009.3
20260502230843 56 356 4.0 10.0 0.00 0.00 0.00 41 1009.3
20260502230640 56 337 3.0 9.0 0.00 0.00 0.00 42 1009.4
20260502230351 56 9 3.0 9.0 0.00 0.00 0.00 42 1009.3
20260502230150 56 351 4.0 9.0 0.00 0.00 0.00 41 1009.2
20260502225839 56 287 4.0 9.0 0.00 0.00 0.00 41 1009.1
20260502225637 56 356 3.0 8.0 0.00 0.00 0.00 40 1009.1
20260502225345 57 19 2.0 8.0 0.00 0.00 0.00 41 1009.0
20260502225147 57 351 3.0 8.0 0.00 0.00 0.00 40 1009.0
20260502224834 57 16 3.0 8.0 0.00 0.00 0.00 41 1009.0
20260502224636 57 6 2.0 5.0 0.00 0.00 0.00 41 1009.0
20260502224343 57 3 3.0 6.0 0.00 0.00 0.00 40 1009.0
20260502224144 57 306 2.0 8.0 0.00 0.00 0.00 40 1009.0
20260502223850 58 305 3.0 11.0 0.00 0.00 0.00 40 1009.0
20260502223650 58 248 3.0 11.0 0.00 0.00 0.00 40 1009.0
20260502223338 58 346 4.0 11.0 0.00 0.00 0.00 39 1009.0
20260502223200 58 335 5.0 11.0 0.00 0.00 0.00 39 1009.0
20260502222846 58 21 3.0 11.0 0.00 0.00 0.00 40 1009.0
20260502222647 58 317 4.0 9.0 0.00 0.00 0.00 40 1009.0
20260502222353 58 6 4.0 9.0 0.00 0.00 0.00 40 1009.0
20260502222211 58 360 1.0 8.0 0.00 0.00 0.00 40 1008.9
20260502221900 58 4 3.0 8.0 0.00 0.00 0.00 40 1009.0
20260502221658 58 2 3.0 6.0 0.00 0.00 0.00 39 1008.9
20260502221345 58 351 2.0 6.0 0.00 0.00 0.00 40 1008.9
20260502221142 58 295 1.0 9.0 0.00 0.00 0.00 40 1008.9
20260502220833 58 16 3.0 9.0 0.00 0.00 0.00 39 1008.9
20260502220650 58 356 2.0 9.0 0.00 0.00 0.00 39 1008.9
20260502220340 59 12 3.0 8.0 0.00 0.00 0.00 40 1008.9
20260502220159 59 323 2.0 8.0 0.00 0.00 0.00 40 1008.9
20260502215908 59 14 2.0 8.0 0.00 0.00 0.00 40 1008.8
20260502215646 59 6 2.0 8.0 0.00 0.00 0.00 40 1008.8
20260502215337 59 346 2.0 7.0 0.00 0.00 0.00 41 1008.9
20260502215136 59 23 3.0 7.0 0.00 0.00 0.00 39 1008.8
20260502214841 59 340 1.0 5.0 0.00 0.00 0.00 40 1008.8
20260502214642 59 356 2.0 5.0 0.00 0.00 0.00 38 1008.8
20260502214351 59 293 2.0 12.0 0.00 0.00 0.00 39 1008.7
20260502214153 60 6 2.0 12.0 0.00 0.00 0.00 39 1008.8
20260502213840 60 346 3.0 12.0 0.00 0.00 0.00 38 1008.7
20260502213642 60 2 3.0 12.0 0.00 0.00 0.00 39 1008.7
20260502213348 60 356 2.0 6.0 0.00 0.00 0.00 40 1008.7
20260502213150 60 6 2.0 6.0 0.00 0.00 0.00 40 1008.7
20260502212837 60 6 3.0 7.0 0.00 0.00 0.00 40 1008.6
20260502212639 60 279 2.0 6.0 0.00 0.00 0.00 39 1008.6
20260502212345 60 10 3.0 8.0 0.00 0.00 0.00 38 1008.6
20260502212145 60 21 3.0 9.0 0.00 0.00 0.00 39 1008.6
20260502211851 60 20 2.0 9.0 0.00 0.00 0.00 41 1008.5
20260502211634 60 351 4.0 9.0 0.00 0.00 0.00 39 1008.6
20260502211359 60 12 1.0 9.0 0.00 0.00 0.00 39 1008.6
20260502211135 60 42 2.0 10.0 0.00 0.00 0.00 39 1008.5
20260502210847 60 10 3.0 10.0 0.00 0.00 0.00 39 1008.5
20260502210636 60 24 5.0 10.0 0.00 0.00 0.00 38 1008.5
20260502210112 60 356 4.0 10.0 0.00 0.00 0.00 40 1008.5
20260502205809 59 37 4.0 10.0 0.00 0.00 0.00 39 1008.5
20260502205610 59 10 5.0 10.0 0.00 0.00 0.00 40 1008.5
20260502205306 59 1 2.0 8.0 0.00 0.00 0.00 41 1008.5
20260502205113 59 356 2.0 8.0 0.00 0.00 0.00 42 1008.5
20260502204811 59 18 3.0 8.0 0.00 0.00 0.00 40 1008.4
20260502204611 59 356 4.0 6.0 0.00 0.00 0.00 39 1008.4
20260502204309 59 1 2.0 6.0 0.00 0.00 0.00 40 1008.4
20260502204110 59 346 2.0 8.0 0.00 0.00 0.00 40 1008.5
20260502203814 59 351 1.0 8.0 0.00 0.00 0.00 40 1008.5
20260502203612 59 351 1.0 8.0 0.00 0.00 0.00 41 1008.5
20260502203329 59 360 2.0 8.0 0.00 0.00 0.00 42 1008.5
20260502203115 59 351 1.0 9.0 0.00 0.00 0.00 42 1008.5
20260502202813 59 8 3.0 9.0 0.00 0.00 0.00 39 1008.5
20260502202612 59 341 2.0 9.0 0.00 0.00 0.00 40 1008.6
20260502202310 59 351 5.0 9.0 0.00 0.00 0.00 40 1008.6
20260502202110 59 1 2.0 5.0 0.00 0.00 0.00 42 1008.6
20260502201815 59 351 2.0 11.0 0.00 0.00 0.00 42 1008.7
20260502201615 59 351 1.0 11.0 0.00 0.00 0.00 41 1008.7
20260502201332 60 351 5.0 11.0 0.00 0.00 0.00 38 1008.7
20260502201118 60 6 5.0 11.0 0.00 0.00 0.00 38 1008.8
20260502200754 61 11 2.0 9.0 0.00 0.00 0.00 41 1008.8
20260502200624 60 255 3.0 14.0 0.00 0.00 0.00 42 1008.9
20260502200320 60 16 4.0 14.0 0.00 0.00 0.00 41 1008.9
20260502200059 60 9 3.0 14.0 0.00 0.00 0.00 42 1008.9
20260502195756 60 13 4.0 14.0 0.00 0.00 0.00 44 1008.8
20260502195602 59 250 2.0 9.0 0.00 0.00 0.00 41 1008.9
20260502195320 59 28 1.0 9.0 0.00 0.00 0.00 43 1009.0
20260502195059 59 30 2.0 9.0 0.00 0.00 0.00 41 1009.0
20260502194803 59 23 4.0 10.0 0.00 0.00 0.00 42 1009.1
20260502194603 60 356 5.0 11.0 0.00 0.00 0.00 40 1009.1
20260502194300 60 356 3.0 11.0 0.00 0.00 0.00 42 1009.1
20260502194100 60 13 6.0 11.0 0.00 0.00 0.00 41 1009.0
20260502193757 60 356 2.0 9.0 0.00 0.00 0.00 43 1009.0
20260502193604 61 1 3.0 9.0 0.00 0.00 0.00 40 1009.1
20260502193302 61 4 1.0 8.0 0.00 0.00 0.00 41 1009.1
20260502193102 61 4 1.0 8.0 0.00 0.00 0.00 43 1009.2
20260502192800 61 5 4.0 8.0 0.00 0.00 0.00 42 1009.2
20260502192601 61 356 2.0 8.0 0.00 0.00 0.00 43 1009.3
20260502192305 61 351 1.0 8.0 0.00 0.00 0.00 43 1009.3
20260502192104 60 17 3.0 10.0 0.00 0.00 0.00 43 1009.4
20260502191802 61 356 3.0 10.0 0.00 0.00 0.00 41 1009.5
20260502191602 61 2 5.0 10.0 0.00 0.00 0.00 39 1009.5
20260502191305 61 356 3.0 9.0 0.00 0.00 0.00 45 1009.6
20260502191104 61 4 2.0 9.0 0.00 0.00 0.00 43 1009.6
20260502190802 61 10 3.0 9.0 0.00 0.00 0.00 41 1009.5
20260502190602 60 6 2.0 10.0 0.00 0.00 0.00 44 1009.5
20260502190300 60 4 2.0 10.0 0.00 0.00 0.00 40 1009.6
20260502190101 60 218 3.0 10.0 0.00 0.00 0.00 40 1009.6
20260502185805 60 250 5.0 15.0 0.00 0.00 0.00 39 1009.6
20260502185605 60 246 2.0 15.0 0.00 0.00 0.00 40 1009.6
20260502185305 60 268 4.0 15.0 0.00 0.00 0.00 42 1009.7
20260502185130 60 201 1.0 7.0 0.00 0.00 0.00 43 1009.7
20260502184806 60 93 3.0 7.0 0.00 0.00 0.00 42 1009.6
20260502184606 60 154 4.0 10.0 0.00 0.00 0.00 40 1009.7
20260502184303 60 233 3.0 11.0 0.00 0.00 0.00 43 1009.7
20260502184104 60 232 2.0 11.0 0.00 0.00 0.00 42 1009.7
20260502183808 59 250 7.0 11.0 0.00 0.00 0.00 41 1009.7
20260502183608 59 233 3.0 11.0 0.00 0.00 0.00 42 1009.7
20260502183306 60 242 4.0 11.0 0.00 0.00 0.00 42 1009.8
20260502183106 60 266 5.0 11.0 0.00 0.00 0.00 41 1009.9
20260502182611 60 289 2.0 9.0 0.00 0.00 0.00 44 1009.9
20260502182326 60 289 2.0 9.0 0.00 0.00 0.00 43 1009.9
20260502182116 60 257 3.0 9.0 0.00 0.00 0.00 43 1009.9
20260502181809 60 272 3.0 10.0 0.00 0.00 0.00 44 1009.9
20260502181554 59 351 3.0 10.0 0.00 0.00 0.00 45 1010.0
20260502181308 59 346 4.0 10.0 0.00 0.00 0.00 43 1009.9
20260502181119 59 356 2.0 5.0 0.00 0.00 0.00 44 1009.9
20260502180831 59 360 2.0 5.0 0.00 0.00 0.00 45 1009.9
20260502180553 59 272 1.0 5.0 0.00 0.00 0.00 48 1009.9
20260502180254 58 338 2.0 10.0 0.00 0.00 0.00 46 1010.0
20260502180119 58 246 1.0 10.0 0.00 0.00 0.00 45 1009.9
20260502170322 58 7 4.0 9.0 0.00 0.00 0.00 49 1010.4
20260502170108 58 12 3.0 9.0 0.00 0.00 0.00 47 1010.5
20260502164303 58 15 2.0 6.0 0.00 0.00 0.00 56 1010.6
20260502164111 57 260 2.0 4.0 0.00 0.00 0.00 54 1010.6
20260502163826 57 254 1.0 10.0 0.00 0.00 0.00 58 1010.7
20260502163605 57 306 2.0 11.0 0.00 0.00 0.00 56 1010.7
20260502163301 57 9 2.0 11.0 0.00 0.00 0.00 57 1010.7
20260502163108 57 6 5.0 11.0 0.00 0.00 0.00 55 1010.8
20260502162805 57 21 2.0 8.0 0.00 0.00 0.00 58 1010.7
20260502162605 57 346 2.0 6.0 0.00 0.00 0.00 55 1010.7
20260502162304 56 351 1.0 9.0 0.00 0.00 0.00 57 1010.7
20260502162104 56 351 3.0 9.0 0.00 0.00 0.00 55 1010.7
20260502161807 56 7 5.0 9.0 0.00 0.00 0.00 55 1010.8
20260502161607 56 6 3.0 9.0 0.00 0.00 0.00 57 1010.8
20260502161305 56 21 3.0 8.0 0.00 0.00 0.00 58 1010.8
20260502161105 56 360 4.0 8.0 0.00 0.00 0.00 56 1010.8
20260502160809 56 356 3.0 8.0 0.00 0.00 0.00 57 1010.8
20260502160610 56 193 1.0 11.0 0.00 0.00 0.00 59 1010.7
20260502160307 56 341 2.0 11.0 0.00 0.00 0.00 57 1010.8
20260502160108 56 5 4.0 11.0 0.00 0.00 0.00 56 1010.8
20260502152113 55 15 3.0 11.0 0.00 0.00 0.00 63 1011.1
20260502151827 55 4 5.0 11.0 0.00 0.00 0.00 63 1011.1
20260502151611 55 13 4.0 10.0 0.00 0.00 0.00 63 1011.0
20260502151311 55 27 2.0 8.0 0.00 0.00 0.00 66 1011.1
20260502151055 54 335 2.0 9.0 0.00 0.00 0.00 66 1011.0
20260502150806 54 351 4.0 9.0 0.00 0.00 0.00 65 1011.1
20260502150611 54 351 4.0 10.0 0.00 0.00 0.00 64 1011.2
20260502150304 53 351 4.0 10.0 0.00 0.00 0.00 65 1011.2
20260502150116 53 360 5.0 10.0 0.00 0.00 0.00 64 1011.2
20260502140106 53 323 5.0 12.0 0.00 0.00 0.00 71 1011.2
20260502130609 52 49 3.0 11.0 0.00 0.00 0.00 78 1011.4
20260502130306 52 4 3.0 9.0 0.00 0.00 0.00 79 1011.5
20260502130107 51 15 2.0 10.0 0.00 0.00 0.00 79 1011.4
20260502123805 51 351 3.0 11.0 0.00 0.00 0.00 80 1011.2
20260502123632 51 346 4.0 11.0 0.00 0.00 0.00 81 1011.2
20260502123309 51 333 4.0 11.0 0.00 0.00 0.00 81 1011.1
20260502123109 51 17 2.0 5.0 0.00 0.00 0.00 82 1011.1
20260502122815 51 277 1.0 5.0 0.00 0.00 0.00 82 1011.0
20260502122614 51 23 2.0 5.0 0.00 0.00 0.00 82 1010.9
20260502122333 51 316 2.0 9.0 0.00 0.00 0.00 83 1010.9
20260502122112 51 21 2.0 9.0 0.00 0.00 0.00 83 1010.9
20260502121815 51 360 2.0 9.0 0.00 0.00 0.00 83 1010.9
20260502121615 51 356 4.0 9.0 0.00 0.00 0.00 83 1010.9
20260502121253 51 13 4.0 9.0 0.00 0.00 0.00 83 1010.8
20260502121054 51 11 4.0 8.0 0.00 0.00 0.00 84 1010.8
20260502120818 51 5 0.0 8.0 0.00 0.00 0.00 85 1010.7
20260502120618 51 5 1.0 8.0 0.00 0.00 0.00 84 1010.7
20260502120256 51 356 2.0 8.0 0.00 0.00 0.00 84 1010.7
20260502115810 51 8 3.0 8.0 0.00 0.00 0.00 84 1010.8
20260502115617 51 19 2.0 8.0 0.00 0.00 0.00 85 1010.8
20260502115314 51 356 2.0 8.0 0.00 0.00 0.00 85 1010.8
20260502115055 51 14 3.0 8.0 0.00 0.00 0.00 85 1010.9
20260502114814 51 297 3.0 7.0 0.00 0.00 0.00 86 1010.8
20260502114620 50 291 1.0 7.0 0.00 0.00 0.00 86 1010.8
20260502114318 50 250 2.0 4.0 0.00 0.00 0.00 86 1010.8
20260502114105 50 249 2.0 4.0 0.00 0.00 0.00 86 1010.8
20260502113801 50 249 1.0 4.0 0.00 0.00 0.00 87 1010.9
20260502113602 50 249 1.0 4.0 0.00 0.00 0.00 88 1011.0
20260502113259 50 249 2.0 4.0 0.00 0.00 0.00 88 1011.0
20260502113100 50 249 2.0 4.0 0.00 0.00 0.00 89 1011.0
20260502112758 49 249 1.0 4.0 0.00 0.00 0.00 90 1010.9
20260502112604 49 249 2.0 4.0 0.00 0.00 0.00 90 1010.9
20260502112305 49 249 0.0 7.0 0.00 0.00 0.00 90 1010.9
20260502112102 49 249 2.0 7.0 0.00 0.00 0.00 91 1011.0
20260502111759 49 249 2.0 7.0 0.00 0.00 0.00 91 1011.0
20260502111600 49 249 3.0 7.0 0.00 0.00 0.00 92 1011.0
20260502111303 49 328 1.0 3.0 0.00 0.00 0.00 92 1011.0
20260502111103 49 328 1.0 2.0 0.00 0.00 0.00 92 1011.0
20260502110801 48 328 0.0 3.0 0.00 0.00 0.00 92 1010.8
20260502110628 48 328 0.0 3.0 0.00 0.00 0.00 92 1010.8
20260502110305 48 328 1.0 3.0 0.00 0.00 0.00 92 1010.7
20260502110133 48 328 0.0 2.0 0.00 0.00 0.00 92 1010.7
20260502105805 48 328 0.0 1.0 0.00 0.00 0.00 92 1010.6
20260502105610 48 328 0.0 1.0 0.00 0.00 0.00 92 1010.6
20260502105306 48 328 0.0 2.0 0.00 0.00 0.00 92 1010.7
20260502105108 48 328 0.0 2.0 0.00 0.00 0.00 92 1010.6
20260502104829 48 328 1.0 2.0 0.00 0.00 0.00 92 1010.5
20260502104633 48 328 1.0 2.0 0.00 0.00 0.00 92 1010.5
20260502104312 47 328 0.0 1.0 0.00 0.00 0.00 92 1010.4
20260502104116 47 328 0.0 0.0 0.00 0.00 0.00 92 1010.3
20260502103809 47 328 0.0 1.0 0.00 0.00 0.00 92 1010.3
20260502103553 47 328 0.0 2.0 0.00 0.00 0.00 92 1010.3
20260502103307 47 328 0.0 2.0 0.00 0.00 0.00 91 1010.3
20260502103118 47 328 1.0 2.0 0.00 0.00 0.00 91 1010.3
20260502102810 47 328 1.0 2.0 0.00 0.00 0.00 90 1010.3
20260502102554 47 328 0.0 1.0 0.00 0.00 0.00 90 1010.2
20260502102329 47 328 0.0 1.0 0.00 0.00 0.00 90 1010.2
20260502102118 47 328 0.0 1.0 0.00 0.00 0.00 90 1010.2
20260502101832 47 328 0.0 2.0 0.00 0.00 0.00 90 1010.3
20260502101555 47 328 0.0 2.0 0.00 0.00 0.00 90 1010.2
20260502101315 47 328 1.0 2.0 0.00 0.00 0.00 90 1010.2
20260502101100 48 328 1.0 2.0 0.00 0.00 0.00 89 1010.2
20260502100752 48 328 1.0 1.0 0.00 0.00 0.00 89 1010.2
20260502100557 48 328 1.0 1.0 0.00 0.00 0.00 89 1010.2
20260502100317 48 328 0.0 1.0 0.00 0.00 0.00 89 1010.2
20260502091256 50 326 1.0 3.0 0.00 0.00 0.00 84 1010.1
20260502091103 50 324 1.0 2.0 0.00 0.00 0.00 84 1010.2
20260502090822 50 324 1.0 2.0 0.00 0.00 0.00 83 1010.2
20260502090600 50 324 1.0 2.0 0.00 0.00 0.00 82 1010.3
20260502090305 50 324 0.0 3.0 0.00 0.00 0.00 82 1010.4
20260502090105 50 324 0.0 3.0 0.00 0.00 0.00 82 1010.4
20260502080107 51 356 1.0 3.0 0.00 0.00 0.00 84 1010.2
20260502071255 51 356 2.0 5.0 0.00 0.00 0.00 84 1009.9
20260502071103 51 356 2.0 5.0 0.00 0.00 0.00 84 1009.9
20260502070759 51 356 2.0 5.0 0.00 0.00 0.00 83 1009.9
20260502070600 51 356 2.0 4.0 0.00 0.00 0.00 83 1009.9
20260502070258 52 356 3.0 8.0 0.00 0.00 0.00 82 1009.9
20260502070059 52 356 2.0 8.0 0.00 0.00 0.00 82 1010.0
20260502065755 52 356 2.0 8.0 0.00 0.00 0.00 82 1010.1
20260502065602 51 356 4.0 8.0 0.00 0.00 0.00 82 1010.1
20260502065316 51 295 1.0 4.0 0.00 0.00 0.00 82 1010.3
20260502065100 51 295 2.0 7.0 0.00 0.00 0.00 82 1010.2
20260502064800 51 234 0.0 8.0 0.00 0.00 0.00 82 1010.4
20260502064605 51 234 1.0 8.0 0.00 0.00 0.00 83 1010.3
20260502064258 51 234 4.0 8.0 0.00 0.00 0.00 83 1010.5
20260502064102 51 8 3.0 6.0 0.00 0.00 0.00 83 1010.3
20260502063756 51 341 0.0 0.0 0.00 0.00 0.00 82 1010.4
20260502063606 51 342 0.0 0.0 0.00 0.00 0.00 82 1010.5
20260502063259 51 341 0.0 0.0 0.00 0.00 0.00 82 1010.3
20260502063102 51 341 0.0 0.0 0.00 0.00 0.00 82 1010.3
20260502062756 51 341 0.0 0.0 0.00 0.00 0.00 82 1010.3
20260502062600 51 342 0.0 0.0 0.00 0.00 0.00 82 1010.2
20260502062253 51 342 0.0 0.0 0.00 0.00 0.00 81 1010.2
20260502062124 51 341 0.0 0.0 0.00 0.00 0.00 81 1010.1
20260502061824 51 341 0.0 0.0 0.00 0.00 0.00 81 1010.1
20260502061301 51 342 0.0 0.0 0.00 0.00 0.00 81 1010.2
20260502061105 51 342 0.0 0.0 0.00 0.00 0.00 81 1010.2
20260502060805 52 342 0.0 0.0 0.00 0.00 0.00 81 1010.3
20260502060553 52 342 0.0 0.0 0.00 0.00 0.00 81 1010.3
20260502060325 52 342 0.0 0.0 0.00 0.00 0.00 80 1010.3
20260502060115 52 341 0.0 0.0 0.00 0.00 0.00 80 1010.2
20260502055829 52 342 0.0 0.0 0.00 0.00 0.00 80 1010.3
20260502055612 52 342 0.0 0.0 0.00 0.00 0.00 80 1010.3